This demonstration page uses our WeatherBlox Daily Observations layout. Learn more.

Hourly Observations for March 15, 2017

Temp ( °F °C ) Dew Point ( °F °C ) Humidity (%) Winds ( mph kmh ) Pressure ( in mb ) Visibility ( mi km ) Precip ( " mm )
12:15 am 00:15 Cloudy 25 -3.7 20 -6.8 79 79 SSE 14 22 30.48 1032 10 16.0934 0 0
12:35 am 00:35 Cloudy 25 -3.7 19 -7 78 78 SSE 10 17 30.48 1032 10 16.0934 0 0
12:55 am 00:55 Cloudy 26 -3.5 19 -7 77 77 SSE 13 20 30.45 1031 10 16.0934 0 0
1:15 am 01:15 Cloudy 26 -3.5 19 -7 77 77 SSE 10 17 30.42 1030 10 16.0934 0 0
1:35 am 01:35 Cloudy 26 -3.5 19 -7 77 77 SSE 12 19 30.45 1031 10 16.0934 0 0
1:55 am 01:55 Cloudy 26 -3.3 19 -7.1 75 75 SSE 12 19 30.45 1031 10 16.0934 0 0
2:15 am 02:15 Cloudy 26 -3.3 19 -7.3 74 74 S 14 22 30.45 1031 10 16.0934 0 0
2:35 am 02:35 Cloudy 26 -3.2 19 -7.2 74 74 S 8 13 30.45 1031 10 16.0934 0 0
2:55 am 02:55 Cloudy 26 -3.1 19 -7.4 73 73 S 13 20 30.45 1031 10 16.0934 0 0
3:15 am 03:15 Cloudy 26 -3.2 19 -7.3 74 74 S 13 20 30.45 1031 10 16.0934 0 0
3:35 am 03:35 Cloudy 26 -3.2 19 -7.2 74 74 S 12 19 30.42 1030 10 16.0934 0 0
3:55 am 03:55 Cloudy 26 -3.1 20 -6.7 76 76 S 10 17 30.42 1030 10 16.0934 0 0
4:15 am 04:15 Cloudy 26 -3.1 20 -6.7 76 76 SSE 13 20 30.42 1030 10 16.0934 0 0
4:35 am 04:35 Cloudy 27 -3 20 -6.7 76 76 S 12 19 30.42 1030 10 16.0934 0 0
4:55 am 04:55 Cloudy 26 -3.1 20 -6.8 76 76 SSE 12 19 30.42 1030 10 16.0934 0 0
5:15 am 05:15 Partly Cloudy 26 -3.6 20 -6.9 78 78 SSE 9 15 30.42 1030 10 16.0934 0 0
5:35 am 05:35 Mostly Cloudy 26 -3.5 20 -6.8 78 78 S 12 19 30.42 1030 10 16.0934 0 0
5:55 am 05:55 Cloudy 26 -3.5 20 -6.7 79 79 SSE 12 19 30.42 1030 10 16.0934 0 0
6:15 am 06:15 Cloudy 26 -3.3 20 -6.7 78 78 SSE 14 22 30.39 1029 10 16.0934 0 0
6:35 am 06:35 Mostly Cloudy 25 -3.8 19 -7 79 79 SSE 13 20 30.39 1029 10 16.0934 0 0
6:55 am 06:55 Cloudy 25 -3.7 20 -6.8 79 79 SSE 13 20 30.39 1029 10 16.0934 0 0
7:15 am 07:15 Cloudy 25 -3.7 20 -6.7 80 80 SSE 13 20 30.39 1029 10 16.0934 0 0
7:35 am 07:35 Cloudy 25 -3.8 20 -6.7 81 81 SSE 13 20 30.36 1028 10 16.0934 0 0
7:55 am 07:55 Cloudy 25 -3.7 20 -6.6 81 81 SSE 13 20 30.36 1028 10 16.0934 0 0
8:15 am 08:15 Partly Cloudy 25 -4 20 -6.7 82 82 S 14 22 30.36 1028 10 16.0934 0 0
8:35 am 08:35 Mostly Cloudy 26 -3.5 20 -6.5 80 80 S 15 24 30.36 1028 10 16.0934 0 0
8:55 am 08:55 Partly Cloudy 26 -3.5 20 -6.5 80 80 S 13 20 30.36 1028 10 16.0934 0 0
9:15 am 09:15 Sunny 27 -2.6 21 -6.2 77 77 S 20 31 30.33 1027 10 16.0934 0 0
9:35 am 09:35 Sunny 29 -1.8 21 -6 73 73 S 16 26 30.36 1028 10 16.0934 0 0
9:55 am 09:55 Sunny 31 -0.6 22 -5.6 69 69 S 21 33 30.33 1027 10 16.0934 0 0
10:15 am 10:15 Sunny 32 0 22 -5.7 66 66 S 15 24 30.33 1027 10 16.0934 0 0
10:35 am 10:35 Sunny 33 0.6 22 -5.6 64 64 S 18 30 30.33 1027 10 16.0934 0 0
10:55 am 10:55 Sunny 34 1.3 21 -6 59 59 S 21 33 30.27 1025 10 16.0934 0 0
11:15 am 11:15 Sunny 36 2.4 22 -5.6 56 56 S 17 28 30.27 1025 10 16.0934 0 0
11:35 am 11:35 Sunny 38 3.2 22 -5.5 53 53 S 18 30 30.27 1025 10 16.0934 0 0
11:55 am 11:55 Sunny 40 4.4 23 -5 51 51 SSW 18 30 30.27 1025 10 16.0934 0 0
12:15 pm 12:15 Sunny 42 5.5 23 -4.9 47 47 SSW 15 24 30.24 1024 10 16.0934 0 0
12:35 pm 12:35 Sunny 43 6.3 24 -4.7 46 46 S 14 22 30.21 1023 10 16.0934 0 0
12:55 pm 12:55 Sunny 45 7.1 24 -4.6 43 43 S 20 31 30.21 1023 10 16.0934 0 0
1:15 pm 13:15 Sunny 47 8.1 24 -4.4 41 41 SSW 18 30 30.15 1021 10 16.0934 0 0
1:35 pm 13:35 Sunny 47 8.2 24 -4.6 40 40 SSW 20 31 30.15 1021 10 16.0934 0 0
1:55 pm 13:55 Sunny 49 9.2 24 -4.6 38 38 S 18 30 30.15 1021 10 16.0934 0 0
2:15 pm 14:15 Sunny 49 9.3 24 -4.3 38 38 SSW 13 20 30.15 1021 10 16.0934 0 0
2:35 pm 14:35 Sunny 50 10.1 24 -4.4 36 36 S 15 24 30.15 1021 10 16.0934 0 0
2:55 pm 14:55 Sunny 51 10.4 24 -4.3 36 36 S 14 22 30.12 1020 10 16.0934 0 0
3:15 pm 15:15 Sunny 52 11.3 25 -4 34 34 S 14 22 30.09 1019 10 16.0934 0 0
3:35 pm 15:35 Sunny 53 11.7 25 -3.8 34 34 S 14 22 30.09 1019 10 16.0934 0 0
3:55 pm 15:55 Sunny 54 12.1 26 -3.6 34 34 S 18 30 30.09 1019 10 16.0934 0 0
4:15 pm 16:15 Sunny 54 12.4 26 -3.6 33 33 S 16 26 30.09 1019 10 16.0934 0 0
4:35 pm 16:35 Sunny 55 13 26 -3.5 32 32 S 16 26 30.09 1019 10 16.0934 0 0
4:55 pm 16:55 Sunny 54 12.3 26 -3.6 33 33 S 15 24 30.06 1018 10 16.0934 0 0
5:15 pm 17:15 Sunny 55 13 26 -3.2 33 33 SSW 15 24 30.06 1018 10 16.0934 0 0
5:35 pm 17:35 Sunny 57 13.7 26 -3.1 31 31 S 14 22 30.03 1017 10 16.0934 0 0
5:55 pm 17:55 Sunny 57 13.7 27 -2.8 32 32 S 12 19 30.03 1017 10 16.0934 0 0
6:15 pm 18:15 Sunny 57 13.7 27 -2.9 32 32 SSE 14 22 30.03 1017 10 16.0934 0 0
6:35 pm 18:35 Sunny 57 14 27 -2.7 32 32 S 15 24 30 1016 10 16.0934 0 0
6:55 pm 18:55 Sunny 56 13.4 27 -2.8 33 33 S 10 17 30 1016 10 16.0934 0 0
7:15 pm 19:15 Sunny 54 12.3 27 -3 35 35 SSE 9 15 30.06 1018 10 16.0934 0 0
7:35 pm 19:35 Sunny 52 11.1 26 -3.1 37 37 SSE 12 19 30.06 1018 10 16.0934 0 0
7:55 pm 19:55 Clear 50 9.9 26 -3.1 40 40 SSE 10 17 30.06 1018 10 16.0934 0 0
8:15 pm 20:15 Clear 48 9 27 -3 43 43 SSE 10 17 30.09 1019 10 16.0934 0 0
8:35 pm 20:35 Clear 47 8.2 27 -3 45 45 SSE 12 19 30.09 1019 10 16.0934 0 0
8:55 pm 20:55 Clear 47 8.1 27 -2.7 47 47 SSE 13 20 30.06 1018 10 16.0934 0 0
9:15 pm 21:15 Clear 46 7.5 27 -2.8 48 48 SSE 13 20 30.06 1018 10 16.0934 0 0
9:35 pm 21:35 Clear 45 7 27 -3 49 49 SSE 14 22 30.06 1018 10 16.0934 0 0
9:55 pm 21:55 Clear 44 6.5 27 -3 51 51 SSE 12 19 30.09 1019 10 16.0934 0 0
10:15 pm 22:15 Clear 43 6 26 -3.1 52 52 SSE 12 19 30.12 1020 10 16.0934 0 0
10:35 pm 22:35 Clear 42 5.4 26 -3.1 55 55 SSE 10 17 30.12 1020 10 16.0934 0 0
10:55 pm 22:55 Clear 42 5.3 26 -3.1 55 55 SSE 13 20 30.12 1020 10 16.0934 0 0
11:15 pm 23:15 Clear 43 6 27 -3 53 53 S 14 22 30.09 1019 10 16.0934 0 0
11:35 pm 23:35 Clear 42 5.8 27 -3 54 54 S 15 24 30.12 1020 10 16.0934 0 0
11:55 pm 23:55 Clear 42 5.5 27 -3 55 55 SSE 14 22 30.09 1019 10 16.0934 0 0

Powered by AerisWeather